When you browse on this site, cookies collect data to enhance your experience and personalize the content and advertising you see.
Visit our Privacy Policy to learn more. By continuing to use the site, you agree to this use of cookies and data.
  • In Hungary
  • List of Countries
  • For 7 days
  • Water Temperature
  • Satellite Maps
  • Weather Map
  • News
  • Weather Widgets
  • user-avatar
    Login

    Hourly Weather Pokrovskoe

    Today, 24 April, Wednesday

    Time Temperature Precipitation Wind Pressure Humidity
    00:00 +10°C° 0 mm 3 mps 762 mmHg 51%
    01:00 +9°C° 0 mm 3 mps 763 mmHg 53%
    02:00 +9°C° 0 mm 3 mps 762 mmHg 53%
    03:00 +9°C° 0 mm 3 mps 763 mmHg 54%
    04:00 +8°C° 0 mm 2 mps 763 mmHg 55%
    05:00 +8°C° 0 mm 2 mps 763 mmHg 57%
    06:00 +10°C° 0 mm 2 mps 763 mmHg 52%
    07:00 +14°C° 0 mm 2 mps 763 mmHg 48%
    08:00 +17°C° 0 mm 2 mps 763 mmHg 43%
    09:00 +18°C° 0 mm 2 mps 763 mmHg 38%
    10:00 +20°C° 0 mm 2 mps 763 mmHg 33%
    11:00 +21°C° 0 mm 2 mps 763 mmHg 28%
    12:00 +23°C° 0 mm 2 mps 762 mmHg 28%
    13:00 +23°C° 0 mm 2 mps 762 mmHg 28%
    14:00 +24°C° 0 mm 2 mps 762 mmHg 28%
    15:00 +23°C° 0 mm 2 mps 762 mmHg 32%
    16:00 +21°C° 0 mm 2 mps 762 mmHg 36%
    17:00 +22°C° 0 mm 1 mps 762 mmHg 41%
    18:00 +21°C° 0 mm 1 mps 761 mmHg 42%
    19:00 +19°C° 0 mm 1 mps 761 mmHg 43%
    20:00 +18°C° 0 mm 1 mps 761 mmHg 44%
    21:00 +18°C° 0 mm 1 mps 762 mmHg 45%
    22:00 +18°C° 0 mm 1 mps 762 mmHg 47%
    23:00 +16°C° 0 mm 1 mps 762 mmHg 48%

    Tomorrow, 25 April, Thursday

    Time Temperature Precipitation Wind Pressure Humidity
    00:00 +15°C° 0 mm 1 mps 762 mmHg 50%
    01:00 +15°C° 0 mm 1 mps 762 mmHg 53%
    02:00 +14°C° 0 mm 1 mps 762 mmHg 55%
    03:00 +14°C° 0 mm 1 mps 762 mmHg 57%
    04:00 +13°C° 0 mm 1 mps 762 mmHg 60%
    05:00 +13°C° 0 mm 1 mps 762 mmHg 62%
    06:00 +15°C° 0 mm 1 mps 762 mmHg 58%
    07:00 +18°C° 0 mm 1 mps 762 mmHg 53%
    08:00 +20°C° 0 mm 1 mps 762 mmHg 48%
    09:00 +21°C° 0 mm 1 mps 762 mmHg 44%
    10:00 +21°C° 0 mm 2 mps 762 mmHg 40%
    11:00 +23°C° 0 mm 2 mps 762 mmHg 36%
    12:00 +24°C° 0 mm 1 mps 762 mmHg 35%
    13:00 +24°C° 0 mm 1 mps 761 mmHg 34%
    14:00 +25°C° 0 mm 1 mps 761 mmHg 33%
    15:00 +25°C° 0 mm 1 mps 761 mmHg 36%
    16:00 +22°C° 0 mm 0 mps 760 mmHg 38%
    17:00 +22°C° 0 mm 0 mps 760 mmHg 41%
    18:00 +21°C° 0 mm 0 mps 760 mmHg 42%
    19:00 +20°C° 0 mm 0 mps 760 mmHg 43%
    20:00 +19°C° 0 mm 0 mps 760 mmHg 44%
    21:00 +18°C° 0 mm 0 mps 760 mmHg 46%
    22:00 +19°C° 0 mm 1 mps 760 mmHg 48%
    23:00 +19°C° 0 mm 1 mps 760 mmHg 50%

    Day after tomorrow, 26 April, Friday

    Time Temperature Precipitation Wind Pressure Humidity
    00:00 +18°C° 0 mm 1 mps 760 mmHg 52%
    01:00 +16°C° 0 mm 1 mps 760 mmHg 55%
    02:00 +16°C° 0 mm 1 mps 759 mmHg 57%
    03:00 +14°C° 0 mm 0 mps 759 mmHg 59%
    04:00 +14°C° 0 mm 0 mps 759 mmHg 60%
    05:00 +14°C° 0 mm 0 mps 759 mmHg 62%
    06:00 +16°C° 0 mm 0 mps 759 mmHg 57%
    07:00 +18°C° 0 mm 0 mps 759 mmHg 52%
    08:00 +22°C° 0 mm 1 mps 759 mmHg 47%
    09:00 +23°C° 0 mm 1 mps 759 mmHg 43%
    10:00 +22°C° 0 mm 0 mps 759 mmHg 40%
    11:00 +23°C° 0 mm 0 mps 759 mmHg 36%
    12:00 +23°C° 0 mm 0 mps 759 mmHg 37%
    13:00 +22°C° 0 mm 0 mps 758 mmHg 38%
    14:00 +22°C° 0 mm 0 mps 758 mmHg 38%
    15:00 +22°C° 0 mm 0 mps 758 mmHg 40%
    16:00 +22°C° 0 mm 0 mps 757 mmHg 41%
    17:00 +21°C° 0 mm 0 mps 757 mmHg 42%
    18:00 +22°C° 0 mm 1 mps 757 mmHg 47%
    19:00 +21°C° 0 mm 1 mps 757 mmHg 51%
    20:00 +18°C° 0 mm 2 mps 758 mmHg 56%
    21:00 +18°C° 0.1 mm 2 mps 757 mmHg 57%
    22:00 +17°C° 0.1 mm 2 mps 757 mmHg 59%
    23:00 +16°C° 0.1 mm 3 mps 757 mmHg 61%

    27 April, Saturday

    Time Temperature Precipitation Wind Pressure Humidity
    00:00 +16°C° 0 mm 3 mps 757 mmHg 61%
    01:00 +15°C° 0 mm 2 mps 757 mmHg 60%
    02:00 +15°C° 0 mm 2 mps 757 mmHg 60%
    03:00 +14°C° 0 mm 2 mps 756 mmHg 61%
    04:00 +14°C° 0 mm 2 mps 756 mmHg 62%
    05:00 +14°C° 0 mm 2 mps 756 mmHg 62%
    06:00 +16°C° 0 mm 2 mps 756 mmHg 57%
    07:00 +17°C° 0 mm 2 mps 756 mmHg 52%
    08:00 +19°C° 0 mm 2 mps 756 mmHg 47%
    09:00 +20°C° 0 mm 2 mps 756 mmHg 43%
    10:00 +21°C° 0 mm 2 mps 756 mmHg 40%
    11:00 +22°C° 0 mm 3 mps 755 mmHg 36%
    12:00 +22°C° 0 mm 3 mps 755 mmHg 37%
    13:00 +22°C° 0 mm 3 mps 755 mmHg 38%
    14:00 +22°C° 0 mm 4 mps 754 mmHg 39%
    15:00 +22°C° 0 mm 3 mps 754 mmHg 42%
    16:00 +21°C° 0 mm 3 mps 754 mmHg 45%
    17:00 +21°C° 0 mm 2 mps 753 mmHg 48%
    18:00 +20°C° 0 mm 2 mps 753 mmHg 51%
    19:00 +18°C° 0 mm 2 mps 753 mmHg 53%
    20:00 +17°C° 0 mm 2 mps 753 mmHg 55%
    21:00 +17°C° 0 mm 2 mps 753 mmHg 56%
    22:00 +16°C° 0 mm 2 mps 753 mmHg 58%
    23:00 +16°C° 0 mm 2 mps 753 mmHg 59%

    28 April, Sunday

    Time Temperature Precipitation Wind Pressure Humidity
    00:00 +15°C° 0 mm 2 mps 752 mmHg 61%
    01:00 +14°C° 0 mm 2 mps 752 mmHg 63%
    02:00 +14°C° 0 mm 1 mps 752 mmHg 65%
    03:00 +14°C° 0 mm 1 mps 752 mmHg 67%
    04:00 +13°C° 0 mm 1 mps 752 mmHg 68%
    05:00 +12°C° 0 mm 0 mps 751 mmHg 69%
    06:00 +14°C° 0 mm 0 mps 751 mmHg 63%
    07:00 +18°C° 0 mm 1 mps 751 mmHg 57%
    08:00 +20°C° 0 mm 1 mps 751 mmHg 51%
    09:00 +20°C° 0 mm 2 mps 751 mmHg 48%
    10:00 +23°C° 0 mm 2 mps 751 mmHg 44%
    11:00 +24°C° 0 mm 3 mps 751 mmHg 41%
    12:00 +24°C° 0 mm 3 mps 750 mmHg 40%
    13:00 +24°C° 0 mm 2 mps 750 mmHg 40%
    14:00 +24°C° 0 mm 2 mps 750 mmHg 39%
    15:00 +24°C° 0 mm 2 mps 750 mmHg 40%
    16:00 +24°C° 0 mm 2 mps 749 mmHg 41%
    17:00 +24°C° 0 mm 2 mps 749 mmHg 42%
    18:00 +21°C° 0 mm 3 mps 749 mmHg 47%
    19:00 +19°C° 0 mm 3 mps 749 mmHg 51%
    20:00 +17°C° 0 mm 3 mps 750 mmHg 55%
    21:00 +16°C° 0 mm 3 mps 749 mmHg 57%
    22:00 +14°C° 0 mm 3 mps 749 mmHg 59%
    23:00 +14°C° 0 mm 3 mps 749 mmHg 61%

    29 April, Monday

    Time Temperature Precipitation Wind Pressure Humidity
    00:00 +13°C° 0 mm 3 mps 749 mmHg 64%
    01:00 +13°C° 0 mm 3 mps 749 mmHg 67%
    02:00 +12°C° 0 mm 3 mps 749 mmHg 70%
    03:00 +13°C° 0 mm 2 mps 749 mmHg 72%
    04:00 +13°C° 0 mm 2 mps 749 mmHg 74%
    05:00 +13°C° 0 mm 2 mps 749 mmHg 76%
    06:00 +15°C° 0 mm 2 mps 750 mmHg 69%
    07:00 +17°C° 0 mm 2 mps 750 mmHg 62%
    08:00 +19°C° 0 mm 2 mps 750 mmHg 55%
    09:00 +20°C° 0.2 mm 2 mps 750 mmHg 55%
    10:00 +21°C° 0.2 mm 3 mps 750 mmHg 55%
    11:00 +21°C° 0.2 mm 3 mps 751 mmHg 55%
    12:00 +21°C° 1.2 mm 4 mps 751 mmHg 59%
    13:00 +20°C° 1.2 mm 5 mps 751 mmHg 64%
    14:00 +19°C° 1.2 mm 6 mps 751 mmHg 68%
    15:00 +17°C° 0.2 mm 6 mps 751 mmHg 70%
    16:00 +15°C° 0.2 mm 6 mps 751 mmHg 72%
    17:00 +14°C° 0.2 mm 6 mps 751 mmHg 74%
    18:00 +13°C° 0 mm 6 mps 752 mmHg 76%
    19:00 +11°C° 0 mm 6 mps 752 mmHg 77%
    20:00 +10°C° 0 mm 6 mps 753 mmHg 78%
    21:00 +10°C° 0 mm 6 mps 753 mmHg 78%
    22:00 +9°C° 0 mm 6 mps 753 mmHg 78%
    23:00 +9°C° 0 mm 6 mps 753 mmHg 78%
    Show more